Skip Page Navigation
NASA JPL Caltech
NASA Logo - Jet Propulsion Laboratory + View the NASA Portal
+ Center for Near-Earth Object Studies
JPL Home Earth Solar System Stars & Galaxies Technology
JPL Solar System Dynamics
BODIES ORBITS EPHEMERIDES TOOLS PHYSICAL DATA DISCOVERY FAQ SITE MAP
JPL Small-Body Database Browser
Search: [ help ]  
(2020 AB2)
Classification: Aten [NEO]          SPK-ID: 3976545
Ephemeris | Orbit Diagram | Orbital Elements | Mission Design | Physical Parameters | Close-Approach Data ]

[ hide orbit diagram ]
Orbit Diagram
[ switch to new HTML5 viewer ]

Note: This Java-based orbit viewer will eventually be retired.

Note: Make sure you have Java enabled on your browser to see the applet. This applet is provided as a 3D orbit visualization tool. The applet was implemented using two-body methods, and hence should not be used for determining accurate long-term trajectories (over several years or decades) or planetary encounter circumstances. For accurate long-term ephemerides, please instead use our Horizons system.

Note: If the applet is not working, here are some notes that might help.
Orbit Viewer

Additional Notes: the orbits shown in the applet are color coded. The planets are white lines, and the asteroid/comet is a blue line. The bright white line indicates the portion of the orbit that is above the ecliptic plane, and the darker portion is below the ecliptic plane. Likewise for the asteroid/comet orbit, the light blue indicates the portion above the ecliptic plane, and the dark blue the portion below the ecliptic plane.

Orbit Viewer applet originally written and kindly provided by Osamu Ajiki (AstroArts), and further modified by Ron Baalke (JPL).


Orbital Elements at Epoch 2459000.5 (2020-May-31.0) TDB
Reference: JPL 4 (heliocentric ecliptic J2000)
 Element Value Uncertainty (1-sigma)   Units 
e .3263922732827753 0.00069829  
a .8044586414946524 0.00026237 au
q .5418895567352396 0.00073847 au
i 2.60385712404804 0.0079915 deg
node 102.4279034717861 0.0071319 deg
peri 155.8639605192864 0.0030531 deg
M 68.91227798933193 0.14372 deg
tp 2458950.051516664183
(2020-Apr-10.55151666)
0.080535 TDB
period 263.5445312619839
0.72
0.12893
0.000353
d
yr
n 1.365993057325601 0.00066826 deg/d
Q 1.067027726254065 0.000348 au
  Orbit Determination Parameters
   # obs. used (total)      27  
   data-arc span      7 days  
   first obs. used      2020-01-05  
   last obs. used      2020-01-12  
   planetary ephem.      DE431  
   SB-pert. ephem.      SB431-N16  
   condition code      7  
   norm. resid. RMS      .47381  
   source      ORB  
   producer      Otto Matic  
   solution date      2020-Jan-13 04:53:04  

Additional Information
 Earth MOID = .00792546 au 
 Jupiter MOID = 3.97819 au 
 T_jup = 7.211 
[ show covariance matrix ]

Ephemeris | Orbit Diagram | Orbital Elements | Mission Design | Physical Parameters | Close-Approach Data ]

Physical Parameter Table
Parameter Symbol Value Units Sigma Reference Notes
absolute magnitude H 27.0   .2898 E2020-AC3 autocmod 2.8

[ hide close-approach data ]
Close-Approach Data   ...sorted by Date/Time (TDB)
Date/Time (TDB) Time Uncertainty
(days_HH:MM)
Body Nominal Distance (au) Minimum Distance (au) Maximum Distance (au) V-relative (km/s) V-infinity (km/s) JD (TDB) Time Uncertainty (minutes) Semi-major axis (km) Semi-minor axis (km) range-LOV angle (deg) N-sigma BP Orbit Ref. Reference Modified
1923-Nov-10 03:53 5_15:25 Earth 0.273900624862752 0.110280960557788 0.478183100417814 16.987554414495 16.9869817558873 2423733.661459734 8124.76291750961 10623751.9205469 295.241343557261 21.9528574784023 47305.3211883165 T 4 CATAB v2.0f-lin.ifort 2020-Jan-13 04:53:08 2020-Jan-13 04:53
1924-May-16 16:24 5_11:55 Mercury 0.0872367951000034 0.0313104411513377 0.150880971351831 8.6756933957338 8.67549880365963 2423922.183000736 7914.90402876235 3255611.8277666 339.29174313167 -17.0196311118497 11116.1687343014 T 4 CATAB v2.0f-lin.ifort 2020-Jan-13 04:53:08 2020-Jan-13 04:53
1925-Feb-04 21:32 06:20 Mercury 0.0861910030689404 0.0545359354589255 0.120138445593361 8.42434396414603 8.42414113452614 2424186.397465856 379.878208762369 1780447.760488 237.529789289065 21.4227877482829 17685.1312151778 T 4 CATAB v2.0f-lin.ifort 2020-Jan-13 04:53:08 2020-Jan-13 04:53
1925-Oct-27 02:10 5_03:27 Mercury 0.0859741264591343 0.0664084490368529 0.127912261291502 8.26454721974404 8.26433994672031 2424450.590512297 7406.866934215 2728700.08709599 99.1494658937408 50.5707871243364 151101.911502237 T 4 CATAB v2.0f-lin.ifort 2020-Jan-13 04:53:08 2020-Jan-13 04:53
1927-Jan-13 19:53 6_20:36 Earth 0.0127933465070793 0.00717227441301949 0.212382766221005 8.4283007552797 8.40355354626783 2424894.328550279 9875.58358352618 10057151.9637321 27.3749461400959 -34.2065293748464 42390.4383221841 T 4 CATAB v2.0f-lin.ifort 2020-Jan-13 04:53:08 2020-Jan-13 04:53
1935-Jan-07 11:14 6_00:03 Earth 0.374770394719136 0.304273318341801 0.445843873470418 20.4959207756389 20.4955738923949 2427809.967842191 8642.96765217699 3605091.5638395 42.8713681224118 11.524507799222 199800.645237761 T 4 CATAB v2.0f-lin.ifort 2020-Jan-13 04:53:08 2020-Jan-13 04:53
1936-Nov-09 10:34 5_01:59 Earth 0.256090007742152 0.249785966103768 0.262538698377998 16.409239295707 16.408605222115 2428481.940363970 7318.67286767059 439579.213427876 687.647139511647 -43.6515822563248 35227.0113248707 T 4 CATAB v2.0f-lin.ifort 2020-Jan-13 04:53:08 2020-Jan-13 04:53
1937-Apr-30 03:41 1_01:05 Earth 0.435288128985304 0.430020140709116 0.440812120656984 14.5144823456453 14.5140606100174 2428653.653436685 1504.50749121712 591225.157096109 63.9645347859784 62.9240836822092 591099.70586565 T 4 CATAB v2.0f-lin.ifort 2020-Jan-13 04:53:08 2020-Jan-13 04:53
1940-Jan-15 22:54 4_09:20 Earth 0.0610829663214029 0.0133842286951561 0.20469144264464 10.0586665677636 10.0543290079646 2429644.454485374 6319.51514643075 7213276.61576436 128.99665434018 -12.6884874518946 14818.2315912305 T 4 CATAB v2.0f-lin.ifort 2020-Jan-13 04:53:08 2020-Jan-13 04:53
1953-Jan-12 17:25 3_05:11 Earth 0.212080256506491 0.00780407415921017 0.497753262051606 15.0675253086555 15.0666914696548 2434390.225473628 4630.77856920562 14249183.0065219 112.096333275269 -2.11522931522966 9053.01782134135 T 4 CATAB v2.0f-lin.ifort 2020-Jan-13 04:53:08 2020-Jan-13 04:53
1954-Nov-15 08:08 3_05:50 Earth 0.392453978011765 0.19784962159071 0.588604029953174 20.9631722021863 20.9628483327435 2435061.839046604 4669.87730205969 9819854.75498534 109.126886411181 6.24055533631099 53245.3106985766 T 4 CATAB v2.0f-lin.ifort 2020-Jan-13 04:53:08 2020-Jan-13 04:53
1984-Jan-12 18:51 8_18:42 Earth 0.229907664478324 0.00537358315157991 0.517655166251547 15.6463019344436 15.6455612086284 2445712.285638860 12641.5994775997 14350262.9091071 82.4457333391675 -1.34484724332922 8427.69323613972 T 4 CATAB v2.0f-lin.ifort 2020-Jan-13 04:53:08 2020-Jan-13 04:53
1993-Nov-07 15:46 2_17:42 Earth 0.0413579493291556 0.039320346292601 0.0876644981233616 8.47738725606756 8.46978423609369 2449299.156787532 3941.82372732189 3269122.27089102 175.717000851781 71.9782615444871 39920.3734808257 T 4 CATAB v2.0f-lin.ifort 2020-Jan-13 04:53:08 2020-Jan-13 04:53
1994-Mar-28 01:38 9_19:17 Earth 0.355559985999764 0.32811446580377 0.383145320513184 9.00936464969878 9.008532837356 2449439.567771287 14116.6851047529 1416421.78405967 317.101216448512 -14.4360762154796 16887.5762849747 T 4 CATAB v2.0f-lin.ifort 2020-Jan-13 04:53:08 2020-Jan-13 04:53
1995-Sep-02 16:10 17:50 Venus 0.012588200648937 0.0117756881682216 0.0233626481866782 11.8930602486335 11.8785465952945 2449963.173569935 1069.81027285906 784971.214250199 170.812756321796 69.3640782177811 9852.25370293497 T 4 CATAB v2.0f-lin.ifort 2020-Jan-13 04:53:08 2020-Jan-13 04:53
1996-Jul-16 19:21 05:54 Earth 0.446870661370418 0.445250376765187 0.448491135445282 15.1432062487162 15.1428125007506 2450281.306577294 353.523327092573 82094.2678439093 81.3246724122659 -10.2049301392335 99187.5056938026 T 4 CATAB v2.0f-lin.ifort 2020-Jan-13 04:53:08 2020-Jan-13 04:53
1996-Aug-09 21:53 03:56 Venus 0.0675582730342923 0.062987793042791 0.0721503691735955 14.8507355776292 14.8485709953807 2450305.411665413 235.82042361638 236266.137980835 63.1079019693159 -14.7585908909944 35619.6882965502 T 4 CATAB v2.0f-lin.ifort 2020-Jan-13 04:53:08 2020-Jan-13 04:53
1997-Jan-08 23:32 13:45 Earth 0.321455760214595 0.306707803871371 0.336203984582941 18.682956684672 18.6825130242438 2450457.480825721 824.585267218313 735573.285128059 72.9879751388821 -1.20741132401719 12284.9733676314 T 4 CATAB v2.0f-lin.ifort 2020-Jan-13 04:53:08 2020-Jan-13 04:53
1998-Nov-11 17:41 1_00:39 Earth 0.300652368928063 0.254090989515902 0.347332373684096 17.843248102101 17.842751418459 2451129.236564713 1478.77106671508 2343783.98802477 120.82857281764 7.22606288463121 42390.1043995693 T 4 CATAB v2.0f-lin.ifort 2020-Jan-13 04:53:08 2020-Jan-13 04:53
1999-May-05 09:13 6_04:52 Earth 0.442896107749653 0.433070731878998 0.452794764955723 15.0698736191345 15.0694744043327 2451303.883998192 8932.46893167659 567941.516720902 351.02407688533 -30.018154201364 54832.3357983347 T 4 CATAB v2.0f-lin.ifort 2020-Jan-13 04:53:08 2020-Jan-13 04:53
2002-Jan-15 00:07 2_17:23 Earth 0.0374664285278161 0.00807392529656784 0.136702670232982 9.25971738700865 9.25203400286243 2452289.504910430 3923.18698841827 4980507.3541338 52.7650737772662 -12.4964924852783 23889.9423254776 T 4 CATAB v2.0f-lin.ifort 2020-Jan-13 04:53:08 2020-Jan-13 04:53
2009-Jun-29 17:40 7_18:46 Earth 0.467666083075386 0.463522139141954 0.471884614836884 16.7778961938598 16.7775566128664 2455012.235901901 11205.9042704134 360855.569069403 260.543131600697 -54.7049929182849 146120.135569175 T 4 CATAB v2.0f-lin.ifort 2020-Jan-13 04:53:08 2020-Jan-13 04:53
